TimeCDT,TemperatureF,Dew PointF,Humidity,Sea Level PressureIn,VisibilityMPH,Wind Direction,Wind SpeedMPH,Gust SpeedMPH,PrecipitationIn,Events,Conditions,WindDirDegrees,DateUTC
12:53 AM,55.0,55.0,100,29.96,9.0,Calm,Calm,-,N/A,,Partly Cloudy,0,2013-04-01 05:53:00
12:57 AM,55.4,53.6,94,29.96,1.8,Calm,Calm,-,N/A,,Partly Cloudy,0,2013-04-01 05:57:00
1:00 AM,53.6,53.6,100,29.96,0.8,Calm,Calm,-,N/A,,Mist,0,2013-04-01 06:00:00
1:17 AM,53.6,53.6,100,29.96,2.0,Calm,Calm,-,N/A,,Mostly Cloudy,0,2013-04-01 06:17:00
1:24 AM,53.6,53.6,100,29.96,6.0,Calm,Calm,-,N/A,,Mostly Cloudy,0,2013-04-01 06:24:00
1:29 AM,53.6,53.6,100,29.96,1.8,Calm,Calm,-,N/A,,Mostly Cloudy,0,2013-04-01 06:29:00
1:49 AM,53.6,53.6,100,29.96,1.5,NNW,3.5,-,0.01,,Scattered Clouds,330,2013-04-01 06:49:00
1:53 AM,53.1,53.1,100,29.95,2.5,NNW,4.6,-,0.01,,Scattered Clouds,330,2013-04-01 06:53:00
2:01 AM,53.6,53.6,100,29.96,9.0,NNW,4.6,-,N/A,,Partly Cloudy,340,2013-04-01 07:01:00
2:53 AM,57.0,57.0,100,29.94,10.0,NNW,6.9,-,N/A,,Partly Cloudy,340,2013-04-01 07:53:00
3:44 AM,55.4,55.4,100,29.96,10.0,NNW,5.8,-,N/A,,Mostly Cloudy,340,2013-04-01 08:44:00
3:53 AM,55.9,55.9,100,29.96,9.0,NNW,5.8,-,N/A,,Mostly Cloudy,330,2013-04-01 08:53:00
4:53 AM,55.9,55.9,100,29.97,4.0,North,5.8,-,N/A,,Overcast,350,2013-04-01 09:53:00
5:53 AM,55.0,55.0,100,29.99,7.0,North,3.5,-,N/A,,Overcast,350,2013-04-01 10:53:00
6:28 AM,55.4,53.6,94,30.02,1.8,North,3.5,-,N/A,,Overcast,350,2013-04-01 11:28:00
6:41 AM,55.4,55.4,100,30.03,0.5,Calm,Calm,-,N/A,Fog,Fog,0,2013-04-01 11:41:00
6:53 AM,54.0,54.0,100,30.03,0.5,Calm,Calm,-,N/A,Fog,Fog,0,2013-04-01 11:53:00
7:05 AM,55.4,55.4,100,30.04,0.2,Calm,Calm,-,N/A,Fog,Fog,0,2013-04-01 12:05:00
7:53 AM,55.0,55.0,100,30.06,0.2,Calm,Calm,-,N/A,Fog,Fog,0,2013-04-01 12:53:00
8:53 AM,55.9,55.9,100,30.08,0.5,Calm,Calm,-,N/A,Fog,Fog,0,2013-04-01 13:53:00
9:01 AM,55.4,55.4,100,30.08,2.0,Calm,Calm,-,N/A,,Overcast,0,2013-04-01 14:01:00
9:11 AM,55.4,55.4,100,30.09,4.0,Calm,Calm,-,N/A,,Overcast,0,2013-04-01 14:11:00
10:05 AM,60.8,55.4,82,30.10,10.0,North,3.5,-,N/A,,Scattered Clouds,350,2013-04-01 15:05:00
10:31 AM,62.6,55.4,77,30.10,10.0,NW,6.9,-,N/A,,Mostly Cloudy,320,2013-04-01 15:31:00
10:46 AM,64.4,55.4,73,30.10,10.0,North,6.9,-,N/A,,Overcast,350,2013-04-01 15:46:00
10:53 AM,64.0,55.9,75,30.10,10.0,NNW,8.1,-,N/A,,Overcast,330,2013-04-01 15:53:00
11:53 AM,66.9,55.0,66,30.09,10.0,NNW,6.9,-,N/A,,Mostly Cloudy,330,2013-04-01 16:53:00
12:06 PM,68.0,53.6,60,30.10,10.0,North,6.9,-,N/A,,Partly Cloudy,10,2013-04-01 17:06:00
12:53 PM,69.1,53.1,57,30.08,10.0,East,5.8,-,N/A,,Partly Cloudy,80,2013-04-01 17:53:00
1:53 PM,71.1,52.0,51,30.06,10.0,Variable,4.6,-,N/A,,Clear,0,2013-04-01 18:53:00
2:53 PM,73.0,48.0,41,30.03,10.0,ENE,6.9,-,N/A,,Clear,60,2013-04-01 19:53:00
3:53 PM,75.0,46.0,36,30.02,10.0,Variable,3.5,-,N/A,,Clear,0,2013-04-01 20:53:00
4:53 PM,75.0,48.0,38,30.00,10.0,Variable,4.6,-,N/A,,Clear,0,2013-04-01 21:53:00
5:53 PM,75.0,45.0,34,30.01,10.0,Variable,3.5,-,N/A,,Clear,0,2013-04-01 22:53:00
6:53 PM,73.0,48.0,41,30.01,10.0,Calm,Calm,-,N/A,,Clear,0,2013-04-01 23:53:00
7:53 PM,64.9,52.0,63,30.01,10.0,Calm,Calm,-,N/A,,Clear,0,2013-04-02 00:53:00
8:53 PM,57.9,52.0,81,30.03,10.0,Calm,Calm,-,N/A,,Clear,0,2013-04-02 01:53:00
9:53 PM,55.9,51.1,84,30.05,10.0,Calm,Calm,-,N/A,,Clear,0,2013-04-02 02:53:00
10:53 PM,54.0,50.0,86,30.06,10.0,Calm,Calm,-,N/A,,Clear,0,2013-04-02 03:53:00
11:53 PM,52.0,48.9,89,30.06,10.0,Calm,Calm,-,N/A,,Clear,0,2013-04-02 04:53:00